Location: Columbia
(38.9520°N, 92.3340°W)
Time: 09:58:51
(UTC-05:00)

FENGYUN 3A - Visible Passes

Search period start: 05 July 2015 00:00
Search period end: 15 July 2015 00:00
Orbit: 820 x 833 km, 98.5° (Epoch: 05 July)

Date Brightness Start Highest point End Pass type
(mag) Time Alt. Az. Time Alt. Az. Time Alt. Az.
05 Jul 5.5 22:28:25 10° SSW 22:32:57 26° W 22:37:22 10° NW visible
06 Jul 4.9 22:08:57 10° SSW 22:13:59 39° W 22:19:00 10° NNW visible
07 Jul 4.2 21:49:46 10° S 21:55:05 58° W 22:00:26 10° NNW visible
08 Jul 3.7 21:30:51 10° SSE 21:36:15 86° WSW 21:41:42 10° NNW visible
09 Jul 3.8 21:12:09 10° SSE 21:17:29 65° ENE 21:22:51 10° N visible
09 Jul 6.1 22:55:08 10° SW 22:58:17 15° W 23:01:10 10° WNW visible
10 Jul 5.7 22:34:58 10° SW 22:39:14 23° W 22:43:20 10° NW visible
11 Jul 5.1 22:15:21 10° SSW 22:20:14 33° W 22:25:04 10° NNW visible
12 Jul 4.4 21:56:05 10° S 22:01:19 50° W 22:06:34 10° NNW visible
13 Jul 3.8 21:37:04 10° S 21:42:28 75° WSW 21:47:53 10° NNW visible
14 Jul 3.7 21:18:18 10° SSE 21:23:40 75° ENE 21:29:04 10° N visible
14 Jul 6.2 23:02:07 10° WSW 23:04:36 13° W 23:06:44 10° WNW visible
